TimeCDT,TemperatureF,Dew PointF,Humidity,Sea Level PressureIn,VisibilityMPH,Wind Direction,Wind SpeedMPH,Gust SpeedMPH,PrecipitationIn,Events,Conditions,WindDirDegrees,DateUTC
12:14 AM,59.0,55.4,88,29.94,10.0,Calm,Calm,-,N/A,,Clear,0,2013-08-31 05:14:00
12:34 AM,59.0,55.4,88,29.94,10.0,Calm,Calm,-,N/A,,Clear,0,2013-08-31 05:34:00
12:54 AM,59.0,55.4,88,29.94,7.0,Calm,Calm,-,N/A,,Clear,0,2013-08-31 05:54:00
1:14 AM,55.4,55.4,100,29.92,10.0,Calm,Calm,-,N/A,,Clear,0,2013-08-31 06:14:00
1:34 AM,59.0,55.4,88,29.93,10.0,Calm,Calm,-,N/A,,Clear,0,2013-08-31 06:34:00
1:54 AM,55.4,55.4,100,29.93,10.0,Calm,Calm,-,N/A,,Clear,0,2013-08-31 06:54:00
2:15 AM,55.4,55.4,100,29.93,5.0,Calm,Calm,-,N/A,,Clear,0,2013-08-31 07:15:00
2:34 AM,55.4,53.6,94,29.93,2.0,Calm,Calm,-,N/A,,Clear,0,2013-08-31 07:34:00
2:55 AM,55.4,53.6,94,29.92,7.0,Calm,Calm,-,N/A,,Clear,0,2013-08-31 07:55:00
3:14 AM,55.4,53.6,94,29.93,4.0,NNW,3.5,-,N/A,,Clear,340,2013-08-31 08:14:00
3:34 AM,55.4,53.6,94,29.92,7.0,Calm,Calm,-,N/A,,Clear,0,2013-08-31 08:34:00
3:54 AM,55.4,53.6,94,29.93,7.0,Calm,Calm,-,N/A,,Clear,0,2013-08-31 08:54:00
4:14 AM,55.4,53.6,94,29.92,5.0,Calm,Calm,-,N/A,,Clear,0,2013-08-31 09:14:00
4:34 AM,55.4,53.6,94,29.91,4.0,Calm,Calm,-,N/A,,Clear,0,2013-08-31 09:34:00
4:54 AM,53.6,53.6,100,29.91,5.0,Calm,Calm,-,N/A,,Clear,0,2013-08-31 09:54:00
5:14 AM,53.6,51.8,94,29.91,4.0,Calm,Calm,-,N/A,,Clear,0,2013-08-31 10:14:00
5:34 AM,53.6,51.8,94,29.90,1.5,Calm,Calm,-,N/A,,Mist,0,2013-08-31 10:34:00
5:54 AM,53.6,51.8,94,29.90,3.0,Calm,Calm,-,N/A,,Clear,0,2013-08-31 10:54:00
6:14 AM,53.6,51.8,94,29.90,1.8,Calm,Calm,-,N/A,,Mist,0,2013-08-31 11:14:00
6:34 AM,53.6,51.8,94,29.89,4.0,Calm,Calm,-,N/A,,Clear,0,2013-08-31 11:34:00
6:55 AM,53.6,53.6,100,29.89,1.5,Calm,Calm,-,N/A,,Mostly Cloudy,0,2013-08-31 11:55:00
7:14 AM,53.6,53.6,100,29.89,0.2,Calm,Calm,-,N/A,Fog,Fog,0,2013-08-31 12:14:00
7:35 AM,55.4,53.6,94,29.89,1.2,Calm,Calm,-,N/A,,Mist,0,2013-08-31 12:35:00
7:54 AM,59.0,57.2,94,29.89,7.0,Calm,Calm,-,N/A,,Clear,0,2013-08-31 12:54:00
8:14 AM,59.0,59.0,100,29.89,10.0,Calm,Calm,-,N/A,,Clear,0,2013-08-31 13:14:00
8:35 AM,60.8,59.0,94,29.89,10.0,Calm,Calm,-,N/A,,Clear,0,2013-08-31 13:35:00
8:54 AM,62.6,60.8,94,29.89,10.0,South,3.5,-,N/A,,Clear,190,2013-08-31 13:54:00
9:15 AM,62.6,62.6,100,29.89,10.0,Calm,Calm,-,N/A,,Clear,0,2013-08-31 14:15:00
9:34 AM,64.4,62.6,94,29.89,10.0,Calm,Calm,-,N/A,,Clear,0,2013-08-31 14:34:00
9:55 AM,64.4,60.8,88,29.88,10.0,Calm,Calm,-,N/A,,Clear,0,2013-08-31 14:55:00
10:14 AM,66.2,60.8,83,29.89,10.0,Calm,Calm,-,N/A,,Clear,0,2013-08-31 15:14:00
10:34 AM,69.8,62.6,78,29.87,10.0,SW,4.6,-,N/A,,Clear,220,2013-08-31 15:34:00
10:55 AM,69.8,62.6,78,29.87,10.0,Calm,Calm,-,N/A,,Clear,0,2013-08-31 15:55:00
11:14 AM,73.4,62.6,69,29.87,10.0,WSW,3.5,-,N/A,,Clear,250,2013-08-31 16:14:00
11:35 AM,73.4,62.6,69,29.87,10.0,West,3.5,-,N/A,,Clear,260,2013-08-31 16:35:00
11:54 AM,75.2,62.6,65,29.87,10.0,Calm,Calm,-,N/A,,Clear,0,2013-08-31 16:54:00
12:14 PM,77.0,62.6,61,29.87,10.0,WSW,5.8,-,N/A,,Clear,250,2013-08-31 17:14:00
12:34 PM,78.8,62.6,57,29.85,10.0,SW,4.6,-,N/A,,Clear,230,2013-08-31 17:34:00
12:54 PM,78.8,62.6,57,29.85,10.0,SW,6.9,-,N/A,,Clear,220,2013-08-31 17:54:00
1:14 PM,80.6,62.6,54,29.84,10.0,South,5.8,-,N/A,,Clear,180,2013-08-31 18:14:00
1:34 PM,80.6,60.8,51,29.83,10.0,SSW,5.8,-,N/A,,Clear,200,2013-08-31 18:34:00
1:55 PM,82.4,62.6,51,29.83,10.0,SSE,6.9,-,N/A,,Clear,160,2013-08-31 18:55:00
2:14 PM,86.0,62.6,45,29.82,10.0,SSW,5.8,-,N/A,,Clear,210,2013-08-31 19:14:00
2:34 PM,86.0,62.6,45,29.82,10.0,SSW,9.2,-,N/A,,Clear,200,2013-08-31 19:34:00
2:54 PM,86.0,62.6,45,29.82,10.0,SW,5.8,-,N/A,,Clear,220,2013-08-31 19:54:00
3:14 PM,86.0,62.6,45,29.81,10.0,SSW,6.9,-,N/A,,Clear,210,2013-08-31 20:14:00
3:34 PM,86.0,60.8,43,29.80,10.0,SSW,10.4,-,N/A,,Clear,200,2013-08-31 20:34:00
3:54 PM,86.0,60.8,43,29.79,10.0,South,9.2,18.4,N/A,,Clear,170,2013-08-31 20:54:00
4:14 PM,86.0,60.8,43,29.79,10.0,WSW,9.2,-,N/A,,Clear,240,2013-08-31 21:14:00
4:34 PM,86.0,60.8,43,29.79,10.0,SSW,10.4,-,N/A,,Clear,200,2013-08-31 21:34:00
4:54 PM,86.0,60.8,43,29.76,10.0,SW,8.1,-,N/A,,Clear,220,2013-08-31 21:54:00
5:14 PM,86.0,60.8,43,29.74,10.0,SSW,5.8,-,N/A,,Clear,210,2013-08-31 22:14:00
5:34 PM,82.4,60.8,48,29.77,10.0,SSW,8.1,-,N/A,,Clear,200,2013-08-31 22:34:00
5:54 PM,82.4,60.8,48,29.80,10.0,SW,5.8,-,N/A,,Clear,230,2013-08-31 22:54:00
6:14 PM,80.6,59.0,48,29.79,10.0,SSW,3.5,-,N/A,,Clear,210,2013-08-31 23:14:00
6:34 PM,78.8,60.8,54,29.82,10.0,WSW,4.6,-,N/A,,Clear,240,2013-08-31 23:34:00
6:54 PM,78.8,60.8,54,29.82,10.0,SW,4.6,-,N/A,,Scattered Clouds,230,2013-08-31 23:54:00
7:14 PM,77.0,62.6,61,29.82,10.0,SW,5.8,-,N/A,Rain,Light Rain,230,2013-09-01 00:14:00
7:34 PM,73.4,62.6,69,29.86,10.0,West,15.0,26.5,N/A,Rain,Light Rain,280,2013-09-01 00:34:00
7:54 PM,69.8,64.4,83,29.86,10.0,WNW,8.1,-,0.02,Rain,Light Rain,300,2013-09-01 00:54:00
8:14 PM,69.8,64.4,83,29.85,10.0,West,4.6,-,0.01,Rain-Thunderstorm,Light Thunderstorms and Rain,260,2013-09-01 01:14:00
8:34 PM,69.8,62.6,78,29.73,10.0,SSE,18.4,24.2,0.03,Rain,Light Rain,160,2013-09-01 01:34:00
8:54 PM,68.0,60.8,78,29.77,10.0,SSW,9.2,-,0.03,,Scattered Clouds,200,2013-09-01 01:54:00
9:14 PM,68.0,60.8,78,29.77,10.0,South,8.1,-,N/A,,Clear,190,2013-09-01 02:14:00
9:34 PM,68.0,60.8,78,29.76,10.0,South,5.8,-,N/A,,Clear,170,2013-09-01 02:34:00
9:54 PM,66.2,59.0,78,29.75,10.0,SSW,6.9,-,N/A,,Clear,200,2013-09-01 02:54:00
10:14 PM,64.4,57.2,77,29.75,10.0,SW,4.6,-,N/A,,Clear,220,2013-09-01 03:14:00
10:34 PM,64.4,57.2,77,29.75,10.0,WSW,4.6,-,N/A,,Clear,250,2013-09-01 03:34:00
10:54 PM,64.4,57.2,77,29.75,10.0,WSW,4.6,-,N/A,,Clear,240,2013-09-01 03:54:00
11:14 PM,64.4,57.2,77,29.75,10.0,WSW,5.8,-,N/A,,Clear,250,2013-09-01 04:14:00
11:35 PM,64.4,55.4,73,29.75,10.0,West,6.9,-,N/A,,Clear,280,2013-09-01 04:35:00
11:54 PM,68.0,57.2,68,29.75,10.0,West,9.2,-,N/A,,Clear,280,2013-09-01 04:54:00